Torna al catalogo

STARLINK-3898

AttivoComunicazioniVLEO
NORAD 52458·PAYLOAD·🇺🇸 United States

Lanciato May 6, 2022 da Cape Canaveral Space Force Station

Loading…

Prossimi Passaggi (prossime 24 ore)

TLE

AggiornatoSource: CelesTrak SupGP

Epoca: Sep 15, 2026, 02:03 UTC

1 52458C 22049H   26258.08590278  .00027960  00000+0  84920-3 0  2580
2 52458  53.1573 294.7599 0001182  91.3021 346.6111 15.33505234    17

Traccia STARLINK-3898 in tempo reale con AllMySat

Download on the App Store